FW7858 Weather Reports


Display with metric or nautical units.
time (UTC)temp
F
wind
direction
speed
MPH
gust
MPH
rain 1hr
in
rain 24hr
in
rain mn
in
humidity
%
barometer
mb
20260506013549 38 360 2.0 8.0 0.00 0.00 0.00 58 1013.5
20260506013046 39 360 2.0 5.0 0.00 0.00 0.00 58 1013.4
20260506012546 39 360 1.0 4.0 0.00 0.00 0.00 58 1013.5
20260506012044 39 360 2.0 4.0 0.00 0.00 0.00 58 1013.4
20260506011545 39 360 1.0 5.0 0.00 0.00 0.00 57 1013.3
20260506011044 39 360 2.0 5.0 0.00 0.00 0.00 56 1013.4
20260506010545 40 360 1.0 6.0 0.00 0.00 0.00 58 1013.3
20260506010046 40 360 0.0 6.0 0.00 0.00 0.00 56 1013.2
20260506005542 40 360 1.0 3.0 0.00 0.00 0.00 57 1013.1
20260506005044 40 360 1.0 3.0 0.00 0.00 0.00 55 1013.0
20260506004545 40 360 0.0 4.0 0.00 0.00 0.00 56 1013.0
20260506004042 40 360 1.0 6.0 0.00 0.00 0.00 55 1012.9
20260506003543 40 360 2.0 6.0 0.00 0.00 0.00 54 1012.9
20260506003042 41 360 0.0 4.0 0.00 0.00 0.00 55 1013.0
20260506002545 41 360 1.0 8.0 0.00 0.00 0.00 54 1013.0
20260506002041 41 360 3.0 9.0 0.00 0.00 0.00 54 1013.0
20260506001604 41 360 1.0 9.0 0.00 0.00 0.00 54 1013.0
20260506001042 41 360 3.0 6.0 0.00 0.00 0.00 55 1013.0
20260506000542 41 360 1.0 5.0 0.00 0.00 0.00 56 1013.0
20260506000046 41 360 2.0 5.0 0.00 0.00 0.00 55 1013.0
20260505235541 41 360 2.0 5.0 0.00 0.00 0.00 54 1013.1
20260505235041 41 360 2.0 6.0 0.00 0.00 0.00 55 1013.1
20260505234548 41 360 3.0 6.0 0.00 0.00 0.00 54 1013.1
20260505234042 41 360 2.0 6.0 0.00 0.00 0.00 53 1013.1
20260505233539 41 360 0.0 8.0 0.00 0.00 0.00 54 1013.0
20260505233046 41 360 2.0 8.0 0.00 0.00 0.00 53 1013.0
20260505232539 41 360 1.0 6.0 0.00 0.00 0.00 53 1013.0
20260505232039 41 360 2.0 6.0 0.00 0.00 0.00 53 1013.0
20260505231548 41 360 1.0 10.0 0.00 0.00 0.00 53 1013.0
20260505231038 41 360 3.0 10.0 0.00 0.00 0.00 53 1013.1
20260505230538 41 360 1.0 9.0 0.00 0.00 0.00 53 1013.0
20260505230039 41 360 2.0 10.0 0.00 0.00 0.00 53 1013.0
20260505225538 41 360 2.0 8.0 0.00 0.00 0.00 54 1012.9
20260505225038 41 360 2.0 10.0 0.00 0.00 0.00 53 1013.0
20260505224541 41 360 1.0 10.0 0.00 0.00 0.00 53 1012.9
20260505224039 42 360 2.0 9.0 0.00 0.00 0.00 54 1012.9
20260505223537 42 360 2.0 5.0 0.00 0.00 0.00 54 1012.9
20260505223043 41 360 2.0 8.0 0.00 0.00 0.00 55 1012.7
20260505222537 42 360 3.0 8.0 0.00 0.00 0.00 54 1012.8
20260505222037 41 360 2.0 6.0 0.00 0.00 0.00 54 1012.8
20260505221541 42 360 2.0 9.0 0.00 0.00 0.00 55 1012.8
20260505221036 42 360 1.0 6.0 0.00 0.00 0.00 56 1012.8
20260505220540 41 360 3.0 6.0 0.00 0.00 0.00 56 1012.7
20260505220041 41 360 1.0 8.0 0.00 0.00 0.00 58 1012.8
20260505215538 41 360 1.0 10.0 0.00 0.00 0.00 57 1012.7
20260505215036 41 360 2.0 10.0 0.00 0.00 0.00 57 1012.8
20260505214555 42 360 3.0 6.0 0.00 0.00 0.00 54 1012.7
20260505214035 41 360 1.0 5.0 0.00 0.00 0.00 56 1012.7
20260505213535 41 360 1.0 13.0 0.00 0.00 0.00 56 1012.8
20260505213050 41 360 2.0 6.0 0.00 0.00 0.00 56 1012.9
20260505212535 41 360 2.0 11.0 0.00 0.00 0.00 56 1012.9
20260505212035 41 360 2.0 8.0 0.00 0.00 0.00 56 1012.9
20260505211535 41 360 2.0 6.0 0.00 0.00 0.00 57 1012.9
20260505211035 41 360 3.0 8.0 0.00 0.00 0.00 57 1012.7
20260505210534 41 360 2.0 8.0 0.00 0.00 0.00 56 1012.8
20260505210034 41 360 3.0 13.0 0.00 0.00 0.00 57 1012.8
20260505205535 40 360 5.0 13.0 0.00 0.00 0.00 56 1012.8
20260505205034 41 360 3.0 6.0 0.00 0.00 0.00 56 1012.8
20260505204537 41 360 2.0 9.0 0.00 0.00 0.00 56 1012.8
20260505204034 41 360 2.0 10.0 0.00 0.00 0.00 57 1012.8
20260505203533 40 360 2.0 6.0 0.00 0.00 0.00 57 1012.9
20260505203043 40 360 2.0 6.0 0.00 0.00 0.00 58 1012.8
20260505202533 40 360 3.0 6.0 0.00 0.00 0.00 58 1013.0
20260505202035 40 360 1.0 8.0 0.00 0.00 0.00 61 1012.9
20260505201545 40 360 1.0 8.0 0.00 0.00 0.00 59 1013.0
20260505201032 40 360 3.0 8.0 0.00 0.00 0.00 58 1013.0
20260505200532 40 360 2.0 8.0 0.00 0.00 0.00 59 1012.9
20260505200032 40 360 2.0 11.0 0.00 0.00 0.00 60 1012.9
20260505195530 40 360 2.0 11.0 0.00 0.00 0.00 60 1012.9
20260505195030 40 360 3.0 9.0 0.00 0.00 0.00 59 1012.9
20260505194530 40 360 2.0 10.0 0.00 0.00 0.00 60 1012.9
20260505194031 40 360 3.0 10.0 0.00 0.00 0.00 58 1012.8
20260505193528 40 360 2.0 8.0 0.00 0.00 0.00 59 1012.8
20260505193042 40 360 2.0 12.0 0.00 0.00 0.00 62 1012.7
20260505192528 40 360 5.0 12.0 0.00 0.00 0.00 60 1012.7
20260505192031 40 360 4.0 11.0 0.00 0.00 0.00 59 1012.6
20260505191528 40 360 2.0 12.0 0.00 0.00 0.00 61 1012.6
20260505191027 40 360 3.0 12.0 0.00 0.00 0.00 59 1012.4
20260505190527 41 360 5.0 12.0 0.00 0.00 0.00 55 1012.4
20260505190032 41 360 4.0 11.0 0.00 0.00 0.00 56 1012.4
20260505185526 41 360 3.0 10.0 0.00 0.00 0.00 58 1012.3
20260505185026 41 360 4.0 9.0 0.00 0.00 0.00 56 1012.2
20260505184527 41 360 3.0 12.0 0.00 0.00 0.00 56 1012.2
20260505184027 42 360 2.0 13.0 0.00 0.00 0.00 56 1012.1
20260505183524 42 360 3.0 13.0 0.00 0.00 0.00 52 1011.9
20260505183042 41 360 4.0 12.0 0.00 0.00 0.00 55 1011.9
20260505182523 41 360 4.0 12.0 0.00 0.00 0.00 55 1012.1
20260505182023 42 360 6.0 12.0 0.00 0.00 0.00 56 1012.0
20260505181523 42 360 4.0 11.0 0.00 0.00 0.00 54 1012.1
20260505181025 42 360 2.0 9.0 0.00 0.00 0.00 55 1011.9
20260505180522 42 360 2.0 9.0 0.00 0.00 0.00 55 1011.9
20260505180032 42 360 4.0 9.0 0.00 0.00 0.00 56 1011.9
20260505175520 42 360 3.0 10.0 0.00 0.00 0.00 54 1011.9
20260505175023 42 360 3.0 8.0 0.00 0.00 0.00 57 1011.9
20260505174528 42 360 2.0 10.0 0.00 0.00 0.00 56 1012.0
20260505174019 42 360 3.0 9.0 0.00 0.00 0.00 55 1011.9
20260505173519 42 360 3.0 8.0 0.00 0.00 0.00 58 1011.9
20260505173019 41 360 3.0 8.0 0.00 0.00 0.00 58 1011.9
20260505172516 41 360 2.0 8.0 0.00 0.00 0.00 58 1011.9
20260505172025 41 360 2.0 8.0 0.00 0.00 0.00 58 1012.0
20260505171526 41 360 2.0 8.0 0.00 0.00 0.00 58 1011.9
20260505171016 41 360 3.0 9.0 0.00 0.00 0.00 59 1011.8
20260505170519 40 360 2.0 9.0 0.00 0.00 0.00 60 1011.7
20260505170016 40 360 1.0 8.0 0.00 0.00 0.00 60 1011.8
20260505165516 40 360 3.0 9.0 0.00 0.00 0.00 59 1011.8
20260505165014 41 360 3.0 9.0 0.00 0.00 0.00 59 1011.7
20260505164529 41 360 1.0 9.0 0.00 0.00 0.00 61 1011.7
20260505164013 41 360 2.0 9.0 0.00 0.00 0.00 61 1011.7
20260505163512 41 360 3.0 8.0 0.00 0.00 0.00 59 1011.6
20260505163016 41 360 2.0 9.0 0.00 0.00 0.00 62 1011.5
20260505162511 41 360 1.0 9.0 0.00 0.00 0.00 60 1011.4
20260505162010 42 360 3.0 9.0 0.00 0.00 0.00 61 1011.3
20260505161511 42 360 2.0 9.0 0.00 0.00 0.00 59 1011.4
20260505161008 42 360 3.0 9.0 0.00 0.00 0.00 63 1011.3
20260505160507 40 360 2.0 9.0 0.00 0.00 0.00 65 1011.3
20260505153002 41 360 2.0 8.0 0.00 0.00 0.00 62 1010.9
20260505152503 40 360 2.0 8.0 0.00 0.00 0.00 63 1010.9
20260505152002 40 360 3.0 9.0 0.00 0.00 0.00 62 1011.0
20260505151600 40 360 3.0 9.0 0.00 0.00 0.00 62 1011.0
20260505151059 40 360 3.0 9.0 0.00 0.00 0.00 62 1010.9
20260505150558 40 360 3.0 9.0 0.00 0.00 0.00 62 1011.0
20260505150113 40 360 2.0 9.0 0.00 0.00 0.00 63 1010.9
20260505140550 38 360 0.0 5.0 0.00 0.00 0.00 64 1010.4
20260505124542 33 360 1.0 4.0 0.00 0.00 0.00 73 1009.7
20260505124042 32 360 1.0 4.0 0.00 0.00 0.00 74 1009.5
20260505123540 32 360 1.0 3.0 0.00 0.00 0.00 76 1009.4
20260505123103 32 360 0.0 3.0 0.00 0.00 0.00 77 1009.4
20260505122540 32 360 1.0 4.0 0.00 0.00 0.00 78 1009.3
20260505122040 31 360 0.0 3.0 0.00 0.00 0.00 79 1009.3
20260505121541 31 360 0.0 4.0 0.00 0.00 0.00 80 1009.3
20260505121042 31 360 0.0 3.0 0.00 0.00 0.00 80 1009.2
20260505120537 31 360 0.0 3.0 0.00 0.00 0.00 80 1009.2
20260505120047 31 360 0.0 3.0 0.00 0.00 0.00 80 1009.1
20260505115538 30 360 0.0 2.0 0.00 0.00 0.00 80 1009.1
20260505115037 30 360 0.0 2.0 0.00 0.00 0.00 81 1009.1
20260505114548 30 360 0.0 2.0 0.00 0.00 0.00 81 1009.1
20260505114038 30 360 0.0 1.0 0.00 0.00 0.00 81 1009.1
20260505113535 30 360 0.0 2.0 0.00 0.00 0.00 81 1009.0
20260505113036 30 360 0.0 2.0 0.00 0.00 0.00 81 1008.9
20260505112535 30 360 0.0 1.0 0.00 0.00 0.00 80 1008.9
20260505112103 30 360 0.0 1.0 0.00 0.00 0.00 80 1008.8
20260505111533 30 360 0.0 2.0 0.00 0.00 0.00 80 1008.8
20260505111033 30 360 0.0 2.0 0.00 0.00 0.00 80 1008.7
20260505110532 30 360 0.0 2.0 0.00 0.00 0.00 79 1008.7
20260505102028 30 360 0.0 0.0 0.00 0.00 0.00 77 1008.6
20260505101528 30 360 0.0 1.0 0.00 0.00 0.00 76 1008.7
20260505101027 30 360 0.0 0.0 0.00 0.00 0.00 75 1008.6
20260505100529 30 360 0.0 1.0 0.00 0.00 0.00 76 1008.6
20260505100032 30 360 0.0 1.0 0.00 0.00 0.00 77 1008.6
20260505095527 30 360 0.0 2.0 0.00 0.00 0.00 77 1008.6
20260505095025 30 360 0.0 2.0 0.00 0.00 0.00 77 1008.6
20260505094524 30 360 0.0 0.0 0.00 0.00 0.00 77 1008.5
20260505094024 29 360 0.0 0.0 0.00 0.00 0.00 77 1008.5
20260505093523 29 360 0.0 0.0 0.00 0.00 0.00 78 1008.6
20260505093123 29 360 0.0 0.0 0.00 0.00 0.00 79 1008.6
20260505092522 30 360 0.0 0.0 0.00 0.00 0.00 79 1008.6
20260505092021 30 360 0.0 0.0 0.00 0.00 0.00 77 1008.5
20260505091529 30 360 0.0 0.0 0.00 0.00 0.00 76 1008.5
20260505091019 30 360 0.0 0.0 0.00 0.00 0.00 75 1008.5
20260505090519 30 360 0.0 0.0 0.00 0.00 0.00 76 1008.4
20260505090036 31 360 0.0 0.0 0.00 0.00 0.00 77 1008.5
20260505085517 31 360 0.0 0.0 0.00 0.00 0.00 77 1008.4
20260505085017 31 360 0.0 1.0 0.00 0.00 0.00 77 1008.4
20260505084519 30 360 0.0 0.0 0.00 0.00 0.00 77 1008.3
20260505084015 30 360 0.0 0.0 0.00 0.00 0.00 78 1008.3
20260505083516 30 360 0.0 0.0 0.00 0.00 0.00 78 1008.2
20260505083014 30 360 0.0 0.0 0.00 0.00 0.00 78 1008.2
20260505082512 31 360 0.0 0.0 0.00 0.00 0.00 78 1008.1
20260505082012 31 360 0.0 0.0 0.00 0.00 0.00 78 1008.3
20260505081511 31 360 0.0 1.0 0.00 0.00 0.00 78 1008.2
20260505081009 32 360 0.0 1.0 0.00 0.00 0.00 77 1008.2
20260505080508 32 360 0.0 0.0 0.00 0.00 0.00 75 1008.1
20260505080008 33 360 0.0 0.0 0.00 0.00 0.00 75 1008.1
20260505075506 33 360 0.0 3.0 0.00 0.00 0.00 75 1008.1
20260505075004 33 360 0.0 3.0 0.00 0.00 0.00 74 1008.0
20260505074503 34 360 1.0 3.0 0.00 0.00 0.00 74 1008.0
20260505074002 34 360 1.0 4.0 0.00 0.00 0.00 73 1008.0
20260505073601 34 360 1.0 4.0 0.00 0.00 0.00 73 1007.9
20260505073102 34 360 1.0 4.0 0.00 0.00 0.00 73 1007.9
20260505072601 34 360 1.0 4.0 0.00 0.00 0.00 72 1007.9
20260505072058 34 360 1.0 4.0 0.00 0.00 0.00 72 1008.0
20260505071559 35 360 2.0 4.0 0.00 0.00 0.00 72 1008.0
20260505071059 35 360 1.0 4.0 0.00 0.00 0.00 72 1008.0
20260505070556 35 360 2.0 5.0 0.00 0.00 0.00 71 1008.0
20260505070058 35 360 3.0 5.0 0.00 0.00 0.00 71 1008.0
20260505065553 35 360 2.0 6.0 0.00 0.00 0.00 71 1007.9
20260505065052 36 360 2.0 6.0 0.00 0.00 0.00 71 1007.9
20260505064553 36 360 3.0 6.0 0.00 0.00 0.00 71 1007.8
20260505064050 36 360 3.0 6.0 0.00 0.00 0.00 71 1007.7
20260505063549 37 360 3.0 9.0 0.00 0.00 0.00 71 1007.8
20260505063048 37 360 3.0 9.0 0.00 0.00 0.00 72 1007.7
20260505062547 37 360 2.0 6.0 0.00 0.00 0.00 73 1007.6
20260505062046 37 360 2.0 6.0 0.00 0.00 0.00 73 1007.6
20260505061545 37 360 2.0 6.0 0.00 0.00 0.00 74 1007.7
20260505061045 37 360 2.0 6.0 0.00 0.00 0.00 74 1007.7
20260505060549 37 360 2.0 6.0 0.00 0.00 0.00 74 1007.7
20260505060044 37 360 1.0 5.0 0.00 0.00 0.00 74 1007.6
20260505055543 37 360 1.0 6.0 0.00 0.00 0.00 73 1007.6
20260505055045 38 360 3.0 8.0 0.00 0.00 0.00 73 1007.6
20260505054541 38 360 3.0 8.0 0.00 0.00 0.00 72 1007.4
20260505054040 38 360 2.0 8.0 0.00 0.00 0.00 72 1007.3
20260505053541 38 360 4.0 8.0 0.00 0.00 0.00 71 1007.4
20260505053036 38 360 4.0 8.0 0.00 0.00 0.00 71 1007.3
20260505052535 38 360 1.0 4.0 0.00 0.00 0.00 71 1007.3
20260505052035 38 360 2.0 4.0 0.00 0.00 0.00 71 1007.3
20260505051537 38 360 1.0 4.0 0.00 0.00 0.00 70 1007.3
20260505051033 39 360 2.0 5.0 0.00 0.00 0.00 70 1007.1
20260505050535 39 360 1.0 8.0 0.00 0.00 0.00 70 1007.1
20260505041540 39 360 1.0 8.0 0.00 0.00 0.00 69 1006.8
20260505041022 40 360 2.0 5.0 0.00 0.00 0.00 69 1006.8
20260505040520 40 360 0.0 4.0 0.00 0.00 0.00 68 1006.8
20260505040020 40 360 1.0 8.0 0.00 0.00 0.00 68 1006.7
20260505035519 40 360 0.0 8.0 0.00 0.00 0.00 68 1006.7
20260505035018 40 360 2.0 5.0 0.00 0.00 0.00 68 1006.8
20260505034518 40 360 1.0 4.0 0.00 0.00 0.00 68 1006.7
20260505034020 40 360 0.0 6.0 0.00 0.00 0.00 67 1006.7
20260505033516 40 360 1.0 6.0 0.00 0.00 0.00 67 1006.5
20260505033015 40 360 1.0 6.0 0.00 0.00 0.00 68 1006.6
20260505032519 41 360 1.0 6.0 0.00 0.00 0.00 67 1006.5
20260505032014 41 360 2.0 6.0 0.00 0.00 0.00 67 1006.5
20260505031516 41 360 3.0 9.0 0.00 0.00 0.00 68 1006.4
20260505031012 41 360 4.0 9.0 0.00 0.00 0.00 67 1006.4
20260505030512 41 360 1.0 6.0 0.00 0.00 0.00 68 1006.3
20260505030011 41 360 0.0 3.0 0.00 0.00 0.00 68 1006.4
20260505025510 41 360 1.0 6.0 0.00 0.00 0.00 67 1006.3
20260505025008 41 360 2.0 6.0 0.00 0.00 0.00 67 1006.2
20260505024507 41 360 1.0 3.0 0.00 0.00 0.00 67 1006.2
20260505024007 41 360 1.0 6.0 0.00 0.00 0.00 67 1006.1
20260505023506 41 360 2.0 6.0 0.00 0.00 0.00 66 1006.0
20260505023004 41 360 2.0 6.0 0.00 0.00 0.00 66 1005.9
20260505022503 41 360 3.0 8.0 0.00 0.00 0.00 66 1005.8
20260505022003 41 360 2.0 11.0 0.00 0.00 0.00 65 1005.8
20260505021504 42 360 2.0 11.0 0.00 0.00 0.00 65 1005.6
20260505021100 42 360 3.0 6.0 0.00 0.00 0.00 66 1005.6
20260505020559 42 360 2.0 10.0 0.00 0.00 0.00 65 1005.5
20260505020059 42 360 3.0 10.0 0.00 0.00 0.00 64 1005.3
20260505015557 43 360 2.0 5.0 0.00 0.00 0.00 64 1005.3
20260505015056 43 360 2.0 9.0 0.00 0.00 0.00 63 1005.2
20260505014609 43 360 3.0 9.0 0.00 0.00 0.00 60 1005.1
20260505014053 43 360 2.0 6.0 0.00 0.00 0.00 57 1005.1